Regional Weather Roundup
Issued by NWS Burlington, VT

Current Version | Previous Version | Text Only | Print | Product List | Glossary On
Versions: 1 2 3 4 5 6 7 8 9 10 11 12 13 14 15 16 17 18 19 20 21 22 23 24 25 26 27 28 29 30 31 32 33 34 35 36 37 38 39 40 41 42 43 44 45 46 47 48 49 50
000
ASUS41 KBTV 310310
RWRBTV
VERMONT REGIONAL WEATHER ROUNDUP
NATIONAL WEATHER SERVICE BURLINGTON VT
1100 PM EDT MON MAR 30 2015

NOTE: "FAIR" INDICATES FEW OR NO CLOUDS BELOW 12,000 FEET WITH NO
SIGNIFICANT WEATHER AND/OR OBSTRUCTIONS TO VISIBILITY.

* THESE REPORTS ARE NOT UNDER NWS QUALITY CONTROL AND/OR DO NOT
  REPORT WEATHER SUCH AS PRECIPITATION AND FOG.

VTZ001>019-310400-
_____VERMONT_____


CITY           SKY/WX    TMP DP  RH WIND       PRES   REMARKS
BURLINGTON     FLURRIES  35  30  82 SW9       29.69R
MONTPELIER     CLOUDY    33  28  81 W7        29.68S
MORRISVILLE    CLOUDY    37  24  59 NW12G20   29.66R
ST. JOHNSBURY*   N/A     33  32  96 MISG      29.63S
LYNDONVILLE*   LGT RAIN  32  30  92 CALM      29.63S
MIDDLEBURY*    LGT RAIN  35  32  88 CALM      29.69S
RUTLAND*       CLOUDY   N/A N/A N/A SW15G21   29.68F
SPRINGFIELD    CLOUDY    38  24  57 SW8       29.70S
HIGHGATE*      CLOUDY    35  29  78 W6        29.66R
NEWPORT*       LGT SNOW  32  30  92 SW9       29.62R
BENNINGTON     CLOUDY    37  28  70 SW8       29.75S

_____LAKE CHAMPLAIN_____


CITY           SKY/WX    TMP DP  RH WIND       PRES   REMARKS

$$

NYZ007-026>031-035-052-083-310400-
_____NORTHERN NEW YORK_____


CITY           SKY/WX    TMP DP  RH WIND       PRES   REMARKS
PLATTSBURGH    CLOUDY    34  31  88 S3        29.68R
SARANAC LAKE   LGT SNOW  30  28  92 W8G17     29.65R FOG
MASSENA        CLOUDY    35  30  82 W13       29.74R
OGDENSBURG*    CLEAR     36  28  75 NW9       29.77R
POTSDAM*       PTCLDY    34  30  86 NW14      29.75R
WATERTOWN      PTCLDY    36  29  75 W8        29.79R
FT DRUM        MOCLDY    34  29  83 W5        29.77R
ALBANY         MOCLDY    37  28  70 SW6       29.79R

$$
NHZ002-005-011-310400-
_____NEW HAMPSHIRE_____


CITY           SKY/WX    TMP DP  RH WIND       PRES   REMARKS
LEBANON        MOCLDY    35  28  75 S6        29.68S
KEENE          MOCLDY    37  25  60 S3        29.73R
MT WASHINGTON  SNOW      12  12 100 NW67        N/A  VSB 0   WCI -16
PLYMOUTH       MOCLDY    27  27 100 CALM      29.66S
WHITEFIELD     FLURRIES  33  29  85 SW7       29.62S

$$

_____REGIONAL QUEBEC LOCATIONS_____


CITY           SKY/WX    TMP DP  RH WIND       PRES   REMARKS
MONTREAL       MOCLDY    34  28  80 W13       29.66R
QUEBEC CITY    CLOUDY    34  32  93 W7        29.52R
SHERBROOKE     LGT RAIN  32  32 100 SW10      29.57S FOG

_____REGIONAL ONTARIO LOCATIONS_____


CITY           SKY/WX    TMP DP  RH WIND       PRES   REMARKS
OTTAWA         MOCLDY    34  21  60 NW22G31   29.75R

______KEY______
VSB  - VISIBILITY IN MILES
WCI  - WIND CHILL INDEX
HX   - HEAT INDEX
$$
NNNN



USA.gov is the U.S. government's official web portal to all federal, state and local government web resources and services.